Regional Weather Roundup
Issued by NWS

Home | Current Version | Previous Version | Text Only | Print | Product List | Glossary On
Versions: 1 2 3 4 5 6 7 8 9 10 11 12 13 14 15 16 17 18 19 20 21 22 23 24 25 26 27 28 29 30 31 32 33 34 35 36 37 38 39 40 41 42 43 44 45 46 47 48 49 50
000
ASUS44 KFWD 291815
RWRTX
NORTH TEXAS HOURLY WEATHER ROUNDUP
NATIONAL WEATHER SERVICE FORT WORTH TX
1200 PM CST THU JAN 29 2015

NOTE: "FAIR" INDICATES FEW OR NO CLOUDS BELOW 12,000 FEET WITH NO
SIGNIFICANT WEATHER AND/OR OBSTRUCTIONS TO VISIBILITY.

TXZ118-119-291900-
DALLAS/FORT WORTH METROPLEX

CITY           SKY/WX    TMP DP  RH WIND       PRES   REMARKS
DFW AIRPORT    PTSUNNY   66  37  34 N17       30.28F
6HR MIN TEMP:  53; 6HR MAX TEMP:  67;

DALLAS LOVE    PTSUNNY   67  37  33 N17       30.28F
6HR MIN TEMP:  51; 6HR MAX TEMP:  67;

FTW MEACHAM    MOSUNNY   67  38  34 N17       30.30S
6HR MIN TEMP:  56; 6HR MAX TEMP:  67;

DAL-EXECUTIVE  SUNNY     70  37  29 N16       30.27S
6HR MIN TEMP:  53; 6HR MAX TEMP:  70;

FTW-ALLIANCE   PTSUNNY   64  36  35 N17       30.30S
6HR MIN TEMP:  49; 6HR MAX TEMP:  65;

FTW-SPINKS     SUNNY     66  39  37 N17G23    30.30F
ARLINGTON      SUNNY     68  34  28 N21       30.28F
6HR MIN TEMP:  46; 6HR MAX TEMP:  68;

GRAND PRAIRIE  SUNNY     66  39  37 N18G30    30.30S
ADDISON        MOSUNNY   64  36  34 N18G24    30.30R
MESQUITE       SUNNY     66  36  32 N14G21    30.29R
LANCASTER      SUNNY     66  36  32 N13G20    30.28F
6HR MIN TEMP:  45; 6HR MAX TEMP:  67;

$$

TXZ091>094-102>105-117-120-121-131>134-291900-
NORTH CENTRAL TEXAS

CITY           SKY/WX    TMP DP  RH WIND       PRES   REMARKS
SHRMAN/DENISON MOSUNNY   62  40  45 N15G21    30.33F
6HR MIN TEMP:  48; 6HR MAX TEMP:  63;

GAINESVILLE    MOSUNNY   61  36  39 N16       30.35S
6HR MIN TEMP:  48; 6HR MAX TEMP:  62;

BOWIE          MOSUNNY   60  36  40 N16G24    30.35F
6HR MIN TEMP:  48; 6HR MAX TEMP:  61;

BRIDGEPORT     MOSUNNY   62  40  43 N14G25    30.35F
6HR MIN TEMP:  46; 6HR MAX TEMP:  62;

DECATUR        SUNNY     63  34  34 N15       30.32F
6HR MIN TEMP:  54; 6HR MAX TEMP:  63;

DENTON         SUNNY     63  37  38 N17G32    30.30F
6HR MIN TEMP:  47; 6HR MAX TEMP:  64;

MCKINNEY       SUNNY     65  37  35 N18G29    30.29S
6HR MIN TEMP:  45; 6HR MAX TEMP:  66;

GREENVILLE     SUNNY     68  34  28 N20       30.28S
ROCKWALL       SUNNY     67  37  33 N15G22    30.27S
6HR MIN TEMP:  47; 6HR MAX TEMP:  67;

TERRELL        SUNNY     70  38  31 N12       30.27S
6HR MIN TEMP:  52; 6HR MAX TEMP:  70;

WAXAHACHIE     SUNNY     67  40  38 N14G20    30.28F
6HR MIN TEMP:  50; 6HR MAX TEMP:  67;

CLEBURNE       PTSUNNY   66  36  32 N16       30.30R
GRANBURY       PTSUNNY   67  38  34 N15G22    30.31R
6HR MIN TEMP:  49; 6HR MAX TEMP:  68;

$$

TXZ083>090-098>101-113>116-127>130-139>142-154-155-291900-
WESTERN NORTH TEXAS

CITY           SKY/WX    TMP DP  RH WIND       PRES   REMARKS
WICHITA FALLS  MOSUNNY   58  36  43 N22       30.39S
6HR MIN TEMP:  43; 6HR MAX TEMP:  58;

WF-KICKAPOO    MOSUNNY   51  29  43 N16G25    30.41R
6HR MIN TEMP:  44; 6HR MAX TEMP:  51;

VERNON         CLOUDY    57  28  32 NE18G28   30.44R
6HR MIN TEMP:  41; 6HR MAX TEMP:  83;

ABILENE        MOSUNNY   62  36  37 NE10G24   30.36R
6HR MIN TEMP:  47; 6HR MAX TEMP:  62;

ABILENE-DYESS  MOSUNNY   61  38  43 NE15G22   30.37R
6HR MIN TEMP:  46; 6HR MAX TEMP:  61;

BRECKENRIDGE   PTSUNNY   62  34  35 NE18G24   30.34S
6HR MIN TEMP:  49; 6HR MAX TEMP:  63;

GRAHAM         PTSUNNY   60  39  47 N17G23    30.35S
6HR MIN TEMP:  45; 6HR MAX TEMP:  60;

MINERAL WELLS  PTSUNNY   64  35  34 N16       30.30S
6HR MIN TEMP:  48; 6HR MAX TEMP:  65;

STEPHENVILLE   MOSUNNY   65  35  31 NE12G21   30.33S
6HR MIN TEMP:  53; 6HR MAX TEMP:  65;

COMANCHE       PTSUNNY   67  39  35 NE12G17   30.31S
6HR MIN TEMP:  52; 6HR MAX TEMP:  67;

BROWNWOOD      CLOUDY    66  36  32 NE13      30.32S
COLEMAN        SUNNY     65  39  38 NE20      30.33S
6HR MIN TEMP:  47; 6HR MAX TEMP:  65;

BRADY          SUNNY     66  37  34 NE14      30.29F
$$

TXZ143>147-156>162-174-175-291900-
CENTRAL TEXAS

CITY           SKY/WX    TMP DP  RH WIND       PRES   REMARKS
WACO           MOSUNNY   69  43  38 N15       30.26S
6HR MIN TEMP:  42; 6HR MAX TEMP:  69;

WACO-MCGREGOR  MOSUNNY   66  46  48 N17       30.27S
6HR MIN TEMP:  45; 6HR MAX TEMP:  66;

HILLSBORO      MOSUNNY   69  38  31 N14G20    30.27S
6HR MIN TEMP:  46; 6HR MAX TEMP:  70;

CORSICANA      SUNNY     69  44  40 N12G20    30.27S
6HR MIN TEMP:  52; 6HR MAX TEMP:  69;

MEXIA          SUNNY     65  54  65 NW6       30.25S
6HR MIN TEMP:  51; 6HR MAX TEMP:  65;

HEARNE         PTSUNNY   70  56  63 SW13G18   30.26S
6HR MIN TEMP:  56; 6HR MAX TEMP:  70;

CAMERON        MOSUNNY   70  56  60 SW7       30.24S
6HR MIN TEMP:  58; 6HR MAX TEMP:  70;

TEMPLE         PTSUNNY   72  46  40 N8        30.24F
6HR MIN TEMP:  45; 6HR MAX TEMP:  72;

KILLEEN        PTSUNNY   67  43  41 N10       30.25S
6HR MIN TEMP:  49; 6HR MAX TEMP:  68;

KILLEEN-SKYLRK MOSUNNY   70  43  37 N13       30.24S
6HR MIN TEMP:  48; 6HR MAX TEMP:  72;

FORT HOOD      PTSUNNY   68  43  40 N16       30.25S
6HR MIN TEMP:  49; 6HR MAX TEMP:  69;

GATESVILLE     MOSUNNY   64  39  39 N13G18    30.29R
HAMILTON       MOSUNNY   68  35  29 NE14G21   30.29S
6HR MIN TEMP:  51; 6HR MAX TEMP:  68;

LAMPASAS       PTSUNNY   69  45  41 N13       30.26S
6HR MIN TEMP:  48; 6HR MAX TEMP:  69;

$$

TXZ095>097-106>112-122>126-135>138-148>153-164>167-291900-
EAST TEXAS

CITY           SKY/WX    TMP DP  RH WIND       PRES   REMARKS
PARIS          MOSUNNY   64  37  36 N14G20    30.28R
6HR MIN TEMP:  48; 6HR MAX TEMP:  64;

SULPHUR SPRNGS SUNNY     65  38  36 N16       30.29S
6HR MIN TEMP:  52; 6HR MAX TEMP:  66;

MOUNT PLEASANT SUNNY     68  36  30 N12       30.25S
6HR MIN TEMP:  55; 6HR MAX TEMP:  68;

GILMER         SUNNY     68  43  40 N7        30.23F
6HR MIN TEMP:  56; 6HR MAX TEMP:  68;

MINEOLA        SUNNY     68  34  28 N8        30.26S
TYLER          SUNNY     69  47  45 VRB6      30.24S
6HR MIN TEMP:  56; 6HR MAX TEMP:  69;

LONGVIEW       SUNNY     71  49  45 NW9       30.22S
6HR MIN TEMP:  54; 6HR MAX TEMP:  71;

MARSHALL       SUNNY     72  55  53 NW7       30.24F
6HR MIN TEMP:  53; 6HR MAX TEMP:  72;

ATHENS         SUNNY     66  45  45 N9        30.25S
PALESTINE      MOSUNNY   67  57  69 SW6       30.25F
JACKSONVILLE   PTSUNNY   68  52  56 MISG      30.26F
HENDERSON      SUNNY     68  53  58 W9        30.24F
6HR MIN TEMP:  52; 6HR MAX TEMP:  68;

NACOGDOCHES    MOSUNNY   68  52  56 W10       30.24F
6HR MIN TEMP:  55; 6HR MAX TEMP:  70;

LUFKIN         SUNNY     74  52  46 W14G20    30.24F
6HR MIN TEMP:  61; 6HR MAX TEMP:  74;

$$

SUPPLEMENTAL OBSERVATIONS (CENTRAL)

CITY           SKY/WX    TMP DP  RH WIND       PRES   REMARKS
LAKE TEXOMA      N/A     57  34  41 N10         N/A
CADDO GRASSLND   N/A     66  37  34 N8G17       N/A
PAT MAYSE LAKE   N/A     61  34  36 NW16        N/A
ATHENS           N/A     70  46  43 VRB6        N/A
PALESTINE        N/A     72  52  49 NW5         N/A
LAKE LIMESTONE   N/A     72  52  49 W8          N/A
MCGREGOR         N/A     66  45  45 NE10        N/A
TEMPLE           N/A     72  48  43 W3          N/A
$$

SUPPLEMENTAL OBSERVATIONS (WEST)

CITY           SKY/WX    TMP DP  RH WIND       PRES   REMARKS



USA.gov is the U.S. government's official web portal to all federal, state and local government web resources and services.